TimeEDT,TemperatureF,Dew PointF,Humidity,Sea Level PressureIn,VisibilityMPH,Wind Direction,Wind SpeedMPH,Gust SpeedMPH,PrecipitationIn,Events,Conditions,WindDirDegrees,DateUTC
12:53 AM,64.0,52.0,65,30.37,10.0,SSE,4.6,-,N/A,,Clear,160,2012-09-13 04:53:00
1:53 AM,63.0,53.1,70,30.37,10.0,SSE,5.8,-,N/A,,Clear,150,2012-09-13 05:53:00
2:53 AM,61.0,53.1,75,30.36,10.0,ESE,4.6,-,N/A,,Clear,120,2012-09-13 06:53:00
3:53 AM,59.0,52.0,78,30.36,10.0,Calm,Calm,-,N/A,,Clear,0,2012-09-13 07:53:00
4:53 AM,59.0,52.0,78,30.36,10.0,Calm,Calm,-,N/A,,Clear,0,2012-09-13 08:53:00
5:53 AM,59.0,52.0,78,30.37,10.0,Calm,Calm,-,N/A,,Clear,0,2012-09-13 09:53:00
6:53 AM,59.0,52.0,78,30.38,10.0,Calm,Calm,-,N/A,,Clear,0,2012-09-13 10:53:00
7:53 AM,60.1,53.1,78,30.40,10.0,Calm,Calm,-,N/A,,Clear,0,2012-09-13 11:53:00
8:53 AM,61.0,55.9,83,30.40,10.0,Calm,Calm,-,N/A,,Clear,0,2012-09-13 12:53:00
10:53 AM,70.0,55.9,61,30.41,10.0,Variable,3.5,-,N/A,,Clear,0,2012-09-13 14:53:00
11:53 AM,73.0,57.0,57,30.40,10.0,South,4.6,-,N/A,,Clear,180,2012-09-13 15:53:00
12:53 PM,75.0,54.0,48,30.38,10.0,SW,5.8,-,N/A,,Clear,220,2012-09-13 16:53:00
1:53 PM,78.1,55.0,45,30.36,10.0,Calm,Calm,-,N/A,,Clear,0,2012-09-13 17:53:00
3:53 PM,79.0,54.0,42,30.32,10.0,South,3.5,-,N/A,,Clear,180,2012-09-13 19:53:00
4:53 PM,79.0,51.1,38,30.31,10.0,Variable,5.8,-,N/A,,Clear,0,2012-09-13 20:53:00
5:53 PM,79.0,52.0,39,30.30,10.0,SSE,6.9,-,N/A,,Clear,150,2012-09-13 21:53:00
6:53 PM,75.9,52.0,43,30.30,10.0,SSE,5.8,-,N/A,,Clear,150,2012-09-13 22:53:00
8:53 PM,70.0,52.0,53,30.30,10.0,SE,4.6,-,N/A,,Clear,140,2012-09-14 00:53:00
9:53 PM,66.9,54.0,63,30.30,10.0,ESE,4.6,-,N/A,,Clear,110,2012-09-14 01:53:00
10:53 PM,64.0,53.1,67,30.31,10.0,East,5.8,-,N/A,,Clear,90,2012-09-14 02:53:00
11:53 PM,63.0,52.0,67,30.31,10.0,East,3.5,-,N/A,,Clear,100,2012-09-14 03:53:00